Weather in Lyubino-Malorossy

Russia / Omsk Oblast     55°12′16″N   73°00′39″E
temp.,
°C
wind,
m/s
gust,
m/s
humid.,
%
clouds,
%
prec.,
mm/h
press.,
hPa
HPBL,
m
23 april, fri
fri2300:00+1sse37590 0.0 1044117
03:000sse37640 0.0 1045140
06:00−1sse48640 0.0 1045175
09:00+4s57431 0.0 1045750
12:00+7s55360 0.0 10441184
15:00+9s56314 0.0 10421463
18:00+9s553075 0.0 10411532
21:00+5s3648100 0.0 1041108
24 april, sat
sat2400:00+3sse4956100 0.0 1040166
03:00+2sse486069 0.0 1039160
06:00+1sse376684 0.0 1038126
09:00+5s5851100 0.0 1037490
12:00+8s6736100 0.0 10351292
15:00+10s5731100 0.0 10331577
18:00+10s5633100 0.0 10311557
21:00+7se4947100 0.0 1031210
25 april, sun
sun2500:00+6sse41148100 0.0 1029298
03:00+5se51256100 0.0 1028298
06:00+5se51255100 0.0 1027330
09:00+7se61348100 0.0 1026541
12:00+10se81239100 0.0 1025858
15:00+13sse8113076 0.0 10222160
18:00+14sse61032100 0.0 10211501
21:00+10se4944100 0.0 1020149
26 april, mon
mon2600:00+9se5134776 0.0 1019287
03:00+7sse5115721 0.0 1018239
06:00+5s4873100 0.0 1018133
09:00+8ssw61289100 1.3 1017356
12:00+14wsw710465 1.7 10172055
15:00+14w893263 0.0 10172325
18:00+14wsw7103373 0.0 10172716
21:00+10wsw494874 0.0 1018158
27 april, tue
tue2700:00+8w356194 0.0 1019106
03:00+6wsw3667100 0.0 1020108
06:00+6sw3665100 0.0 1020117
09:00+10sw4748100 0.0 1020374
12:00+11sw6748100 0.0 1019991
15:00+7s4877100 0.9 1018702
18:00+7sse61188100 3.2 1014514
21:00+7sse5994100 3.6 1011230